Location: Newark
(45.5000°N, 11.4167°E)
Time: 20:22:09
(UTC+00:00)

A-11 Canister half - Pass Details

Date: 25 August 2019
Orbit: 1513 x 1686 km, 47.2° (Epoch: 22 September)

Event Time Altitude Azimuth Distance (km) Brightness Sun altitude
Rises 14:50:24 0° 200° (SSW) 4,645 12.0 32.9°
Reaches altitude 10° 14:53:51 10° 190° (S) 3,675 11.5 32.3°
Maximum altitude 15:01:32 31° 133° (SE) 2,468 10.1 31.0°
Drops below altitude 10° 15:09:24 10° 77° (ENE) 3,773 10.6 29.7°
Sets 15:12:59 0° 67° (ENE) 4,787 11.0 29.1°
